Zurück zum Katalog

FENGYUN 1C DEB

AktivPO
NORAD 30879·DEBRIS·🇨🇳 China

Gestartet May 10, 1999 von Taiyuan Satellite Launch Center

Loading…

Nächste Überflüge (nächste 24 Stunden)

TLE

AktuellSource: Space-Track

Epoche: Sep 14, 2026, 12:22 UTC

1 30879U 99025AXR 26257.51579373  .00010088  00000-0  10487-2 0  9993
2 30879  99.3303 161.4783 0164549 147.1488 214.0079 14.80593044660045

Verfolge FENGYUN 1C DEB in Echtzeit mit AllMySat

Download on the App Store